| time (UTC) | temp F | wind direction | speed knots | gust knots | rain 1hr in | rain 24hr in | rain mn in | humidity % | barometer mb |
| 20260506102906 | 46 | 128 | 0.0 | 0.0 | 0.00 | 0.20 | 0.20 | 92 | 1001.5 |
| 20260506102404 | 46 | 135 | 0.0 | 0.0 | 0.00 | 0.20 | 0.20 | 93 | 1001.4 |
| 20260506101901 | 46 | 120 | 0.0 | 0.0 | 0.00 | 0.20 | 0.20 | 93 | 1001.6 |
| 20260506101357 | 46 | 126 | 0.9 | 0.9 | 0.00 | 0.20 | 0.20 | 95 | 1002.0 |
| 20260506100854 | 46 | 19 | 0.9 | 1.7 | 0.00 | 0.20 | 0.20 | 97 | 1002.1 |
| 20260506100353 | 45 | 149 | 0.0 | 0.9 | 0.00 | 0.20 | 0.20 | 98 | 1002.1 |
| 20260506095851 | 46 | 133 | 0.0 | 0.9 | 0.00 | 0.20 | 0.20 | 98 | 1001.8 |
| 20260506095348 | 46 | 142 | 0.0 | 0.0 | 0.00 | 0.20 | 0.20 | 98 | 1001.6 |
| 20260506094845 | 46 | 141 | 0.0 | 0.0 | 0.00 | 0.20 | 0.20 | 98 | 1001.2 |
| 20260506094343 | 46 | 139 | 0.0 | 0.0 | 0.00 | 0.20 | 0.20 | 98 | 1001.2 |
| 20260506093835 | 46 | 139 | 0.0 | 0.0 | 0.05 | 0.20 | 0.20 | 98 | 1001.2 |
| 20260506093332 | 46 | 139 | 0.0 | 0.0 | 0.05 | 0.20 | 0.20 | 98 | 1001.3 |
| 20260506092830 | 46 | 139 | 0.0 | 0.0 | 0.05 | 0.20 | 0.20 | 98 | 1001.5 |
| 20260506092328 | 46 | 144 | 0.0 | 0.0 | 0.00 | 0.19 | 0.19 | 98 | 1001.4 |
| 20260506091824 | 46 | 144 | 0.0 | 0.0 | 0.00 | 0.19 | 0.19 | 98 | 1001.8 |
| 20260506091322 | 46 | 144 | 0.0 | 0.0 | 0.00 | 0.19 | 0.19 | 98 | 1001.8 |
| 20260506090820 | 46 | 144 | 0.0 | 0.0 | 0.00 | 0.19 | 0.19 | 97 | 1001.9 |
| 20260506090317 | 46 | 144 | 0.0 | 0.0 | 0.00 | 0.19 | 0.19 | 97 | 1002.0 |
| 20260506085813 | 46 | 144 | 0.0 | 0.0 | 0.00 | 0.19 | 0.19 | 97 | 1001.8 |
| 20260506085309 | 46 | 144 | 0.0 | 0.0 | 0.00 | 0.19 | 0.19 | 97 | 1001.8 |
| 20260506084806 | 46 | 139 | 0.0 | 0.9 | 0.00 | 0.19 | 0.19 | 97 | 1002.0 |
| 20260506084303 | 46 | 127 | 0.0 | 0.0 | 0.07 | 0.19 | 0.19 | 97 | 1001.6 |
| 20260506083800 | 46 | 158 | 0.0 | 0.0 | 0.07 | 0.19 | 0.19 | 97 | 1001.6 |
| 20260506083257 | 45 | 134 | 0.9 | 0.9 | 0.00 | 0.18 | 0.18 | 97 | 1001.5 |
| 20260506082754 | 45 | 162 | 0.0 | 0.9 | 0.00 | 0.18 | 0.18 | 97 | 1001.5 |
| 20260506082250 | 46 | 127 | 0.0 | 0.0 | 0.05 | 0.18 | 0.18 | 97 | 1001.6 |
| 20260506081748 | 46 | 153 | 0.0 | 0.0 | 0.05 | 0.18 | 0.18 | 98 | 1001.7 |
| 20260506081245 | 46 | 131 | 0.0 | 0.0 | 0.07 | 0.17 | 0.17 | 98 | 1001.5 |
| 20260506080743 | 46 | 125 | 0.0 | 0.9 | 0.07 | 0.17 | 0.17 | 98 | 1001.5 |
| 20260506080239 | 46 | 289 | 0.9 | 1.7 | 0.05 | 0.16 | 0.16 | 98 | 1001.8 |
| 20260506073223 | 46 | 159 | 0.9 | 0.9 | 0.07 | 0.13 | 0.13 | 99 | 1001.7 |
| 20260506072720 | 46 | 153 | 0.0 | 0.9 | 0.07 | 0.12 | 0.12 | 99 | 1001.9 |
| 20260506072218 | 46 | 140 | 0.9 | 0.9 | 0.12 | 0.12 | 0.12 | 99 | 1001.4 |
| 20260506071715 | 46 | 144 | 0.0 | 0.0 | 0.05 | 0.11 | 0.11 | 99 | 1001.4 |
| 20260506071213 | 46 | 135 | 0.0 | 0.0 | 0.00 | 0.10 | 0.10 | 99 | 1001.7 |
| 20260506070709 | 46 | 136 | 0.0 | 0.0 | 0.07 | 0.10 | 0.10 | 99 | 1001.6 |
| 20260506070207 | 46 | 133 | 0.9 | 0.9 | 0.07 | 0.10 | 0.10 | 99 | 1001.9 |
| 20260506062143 | 47 | 133 | 0.0 | 0.0 | 0.07 | 0.08 | 0.08 | 99 | 1001.3 |
| 20260506061639 | 47 | 133 | 0.0 | 0.0 | 0.00 | 0.07 | 0.07 | 99 | 1001.4 |
| 20260506061137 | 46 | 133 | 0.0 | 0.0 | 0.05 | 0.07 | 0.07 | 99 | 1001.8 |
| 20260506060635 | 46 | 132 | 0.0 | 0.0 | 0.05 | 0.07 | 0.07 | 99 | 1002.1 |
| 20260506060132 | 46 | 136 | 0.0 | 0.0 | 0.00 | 0.06 | 0.06 | 99 | 1002.0 |
| 20260506051104 | 46 | 135 | 0.0 | 0.0 | 0.07 | 0.04 | 0.04 | 99 | 1001.7 |
| 20260506050602 | 46 | 135 | 0.0 | 0.0 | 0.00 | 0.03 | 0.03 | 99 | 1001.7 |
| 20260506045052 | 46 | 135 | 0.0 | 0.0 | 0.07 | 0.02 | 0.02 | 99 | 1002.0 |
| 20260506044550 | 46 | 135 | 0.0 | 0.0 | 0.07 | 0.02 | 0.02 | 99 | 1001.8 |
| 20260506044047 | 47 | 135 | 0.0 | 0.0 | 0.00 | 0.01 | 0.01 | 99 | 1002.1 |
| 20260506043544 | 47 | 135 | 0.0 | 0.0 | 0.00 | 0.01 | 0.01 | 99 | 1001.8 |
| 20260506043042 | 46 | 135 | 0.0 | 0.0 | 0.00 | 0.01 | 0.01 | 99 | 1001.8 |
| 20260506042541 | 46 | 136 | 0.0 | 0.0 | 0.00 | 0.01 | 0.01 | 99 | 1001.9 |
| 20260506042039 | 46 | 136 | 0.0 | 0.0 | 0.00 | 0.01 | 0.01 | 99 | 1002.0 |
| 20260506041537 | 46 | 136 | 0.0 | 0.0 | 0.05 | 0.01 | 0.01 | 99 | 1002.1 |
| 20260506041033 | 46 | 136 | 0.0 | 0.0 | 0.05 | 0.01 | 0.01 | 99 | 1002.3 |
| 20260506040531 | 46 | 136 | 0.0 | 0.0 | 0.00 | 0.00 | 0.00 | 99 | 1002.5 |
| 20260506040027 | 47 | 136 | 0.0 | 0.0 | 0.00 | 0.00 | 0.00 | 99 | 1002.1 |
| 20260506035524 | 47 | 136 | 0.0 | 0.0 | 0.07 | 1.44 | 1.44 | 99 | 1002.5 |
| 20260506035021 | 48 | 129 | 0.0 | 0.0 | 0.07 | 1.44 | 1.44 | 99 | 1002.6 |
| 20260506034519 | 48 | 140 | 0.0 | 0.0 | 0.07 | 1.43 | 1.43 | 99 | 1002.7 |
| 20260506034015 | 48 | 137 | 0.0 | 0.0 | 0.12 | 1.43 | 1.43 | 99 | 1002.6 |
| 20260506033513 | 48 | 137 | 0.0 | 0.0 | 0.05 | 1.42 | 1.42 | 99 | 1002.7 |
| 20260506033010 | 48 | 136 | 0.0 | 0.0 | 0.07 | 1.41 | 1.41 | 99 | 1002.7 |
| 20260506032507 | 48 | 137 | 0.0 | 0.0 | 0.12 | 1.41 | 1.41 | 99 | 1002.9 |
| 20260506032003 | 49 | 137 | 0.0 | 0.0 | 0.05 | 1.40 | 1.40 | 99 | 1002.8 |
| 20260506031501 | 49 | 150 | 0.0 | 0.0 | 0.07 | 1.39 | 1.39 | 99 | 1002.8 |
| 20260506030958 | 49 | 135 | 0.0 | 0.0 | 0.12 | 1.39 | 1.39 | 99 | 1002.7 |
| 20260506030456 | 49 | 133 | 0.0 | 0.0 | 0.12 | 1.38 | 1.38 | 99 | 1002.7 |
| 20260506025953 | 49 | 128 | 0.0 | 0.0 | 0.12 | 1.37 | 1.37 | 99 | 1002.8 |
| 20260506025449 | 49 | 150 | 0.0 | 0.0 | 0.12 | 1.36 | 1.36 | 99 | 1003.1 |
| 20260506024946 | 49 | 144 | 0.0 | 0.0 | 0.12 | 1.35 | 1.35 | 99 | 1002.8 |
| 20260506024443 | 49 | 144 | 0.0 | 0.0 | 0.12 | 1.34 | 1.34 | 99 | 1002.7 |
| 20260506023938 | 49 | 148 | 0.0 | 0.0 | 0.12 | 1.33 | 1.33 | 99 | 1002.8 |
| 20260506023436 | 49 | 123 | 0.0 | 0.0 | 0.19 | 1.32 | 1.32 | 99 | 1002.9 |
| 20260506022932 | 49 | 150 | 0.0 | 0.0 | 0.26 | 1.31 | 1.31 | 99 | 1002.8 |
| 20260506022430 | 49 | 129 | 0.0 | 0.0 | 0.31 | 1.30 | 1.30 | 99 | 1002.7 |
| 20260506021928 | 49 | 139 | 0.0 | 0.0 | 0.24 | 1.28 | 1.28 | 99 | 1002.6 |
| 20260506021425 | 49 | 122 | 0.0 | 0.0 | 0.17 | 1.25 | 1.25 | 99 | 1002.5 |
| 20260506020922 | 49 | 130 | 0.0 | 0.0 | 0.19 | 1.24 | 1.24 | 99 | 1002.3 |
| 20260506020420 | 49 | 126 | 0.0 | 0.0 | 0.12 | 1.22 | 1.22 | 99 | 1002.3 |
| 20260506015917 | 49 | 132 | 0.0 | 0.0 | 0.12 | 1.21 | 1.21 | 99 | 1002.5 |
| 20260506015414 | 49 | 132 | 0.0 | 0.0 | 0.14 | 1.20 | 1.20 | 99 | 1002.2 |
| 20260506014911 | 49 | 131 | 0.0 | 0.0 | 0.07 | 1.19 | 1.19 | 99 | 1002.1 |
| 20260506014408 | 49 | 125 | 0.0 | 0.0 | 0.00 | 1.18 | 1.18 | 99 | 1002.2 |
| 20260506013904 | 49 | 129 | 0.0 | 0.0 | 0.00 | 1.18 | 1.18 | 99 | 1002.2 |
| 20260506013403 | 49 | 132 | 0.0 | 0.0 | 0.05 | 1.18 | 1.18 | 99 | 1001.8 |
| 20260506012858 | 49 | 129 | 0.0 | 0.0 | 0.12 | 1.18 | 1.18 | 99 | 1001.9 |
| 20260506012355 | 49 | 129 | 0.0 | 0.0 | 0.07 | 1.17 | 1.17 | 99 | 1001.9 |
| 20260506011852 | 49 | 136 | 0.0 | 0.0 | 0.05 | 1.16 | 1.16 | 99 | 1001.8 |
| 20260506011349 | 49 | 130 | 0.0 | 0.0 | 0.05 | 1.16 | 1.16 | 99 | 1001.8 |
| 20260506010846 | 49 | 134 | 0.0 | 0.0 | 0.07 | 1.15 | 1.15 | 99 | 1001.8 |
| 20260506010345 | 49 | 130 | 0.0 | 0.0 | 0.07 | 1.15 | 1.15 | 99 | 1001.8 |
| 20260506005841 | 49 | 133 | 0.0 | 0.0 | 0.00 | 1.14 | 1.14 | 99 | 1001.9 |
| 20260506005338 | 49 | 132 | 0.0 | 0.0 | 0.05 | 1.14 | 1.14 | 99 | 1001.8 |
| 20260506004833 | 49 | 127 | 0.0 | 0.0 | 0.05 | 1.14 | 1.14 | 99 | 1002.0 |
| 20260506004332 | 49 | 122 | 0.0 | 0.9 | 0.07 | 1.13 | 1.13 | 99 | 1001.9 |
| 20260506003827 | 49 | 127 | 0.0 | 0.0 | 0.12 | 1.13 | 1.13 | 99 | 1001.9 |
| 20260506003324 | 49 | 119 | 0.0 | 0.0 | 0.12 | 1.12 | 1.12 | 99 | 1002.0 |
| 20260506002820 | 49 | 122 | 0.0 | 0.0 | 0.07 | 1.11 | 1.11 | 99 | 1001.8 |
| 20260506002317 | 49 | 126 | 0.0 | 0.0 | 0.12 | 1.10 | 1.10 | 99 | 1001.9 |
| 20260506001812 | 49 | 127 | 0.0 | 0.0 | 0.12 | 1.10 | 1.10 | 99 | 1001.7 |
| 20260506001310 | 49 | 269 | 0.9 | 0.9 | 0.12 | 1.09 | 1.09 | 99 | 1001.8 |
| 20260506000807 | 50 | 128 | 0.0 | 0.9 | 0.12 | 1.08 | 1.08 | 99 | 1001.5 |
| 20260506000305 | 50 | 134 | 0.0 | 0.0 | 0.19 | 1.07 | 1.07 | 99 | 1001.6 |
| 20260505235801 | 50 | 119 | 0.0 | 0.0 | 0.19 | 1.06 | 1.06 | 99 | 1001.7 |
| 20260505235259 | 50 | 122 | 0.0 | 0.9 | 0.19 | 1.04 | 1.04 | 99 | 1001.4 |
| 20260505234755 | 50 | 17 | 0.0 | 0.9 | 0.12 | 1.03 | 1.03 | 99 | 1001.3 |
| 20260505234253 | 50 | 127 | 0.0 | 0.0 | 0.12 | 1.02 | 1.02 | 99 | 1001.3 |
| 20260505233750 | 50 | 132 | 0.0 | 0.0 | 0.05 | 1.01 | 1.01 | 99 | 1001.3 |
| 20260505233248 | 50 | 118 | 0.0 | 0.0 | 0.07 | 1.00 | 1.00 | 99 | 1001.4 |
| 20260505232745 | 50 | 128 | 0.0 | 0.0 | 0.07 | 1.00 | 1.00 | 99 | 1001.3 |
| 20260505232242 | 50 | 120 | 0.0 | 0.0 | 0.00 | 0.99 | 0.99 | 99 | 1001.5 |
| 20260505231738 | 50 | 95 | 0.9 | 1.7 | 0.00 | 0.99 | 0.99 | 99 | 1001.4 |
| 20260505231237 | 50 | 104 | 0.0 | 0.0 | 0.05 | 0.99 | 0.99 | 99 | 1001.5 |
| 20260505230735 | 50 | 121 | 0.0 | 0.0 | 0.12 | 0.99 | 0.99 | 99 | 1001.5 |
| 20260505230232 | 50 | 138 | 0.0 | 0.0 | 0.24 | 0.98 | 0.98 | 99 | 1001.8 |
| 20260505225728 | 50 | 70 | 0.9 | 0.9 | 0.35 | 0.97 | 0.97 | 98 | 1002.0 |
| 20260505225226 | 50 | 127 | 0.0 | 0.0 | 0.31 | 0.94 | 0.94 | 98 | 1002.2 |
| 20260505224720 | 50 | 120 | 0.0 | 0.0 | 0.31 | 0.91 | 0.91 | 98 | 1001.8 |
| 20260505224218 | 50 | 108 | 0.0 | 0.0 | 0.17 | 0.88 | 0.88 | 98 | 1002.0 |
| 20260505223716 | 50 | 89 | 0.0 | 0.9 | 0.19 | 0.87 | 0.87 | 98 | 1002.0 |
| 20260505223212 | 50 | 127 | 0.0 | 0.0 | 0.24 | 0.85 | 0.85 | 98 | 1002.1 |
| 20260505222708 | 50 | 97 | 0.9 | 0.9 | 0.19 | 0.83 | 0.83 | 98 | 1002.0 |
| 20260505222204 | 51 | 193 | 1.7 | 1.7 | 0.19 | 0.81 | 0.81 | 98 | 1002.0 |
| 20260505221702 | 51 | 103 | 0.9 | 0.9 | 0.19 | 0.80 | 0.80 | 98 | 1001.5 |
| 20260505221158 | 51 | 133 | 0.9 | 0.9 | 0.19 | 0.78 | 0.78 | 98 | 1001.5 |
| 20260505220655 | 51 | 146 | 0.0 | 0.0 | 0.40 | 0.77 | 0.77 | 98 | 1001.8 |
| 20260505220153 | 51 | 102 | 0.0 | 0.0 | 0.54 | 0.76 | 0.76 | 98 | 1001.9 |
| 20260505215650 | 51 | 154 | 0.0 | 0.9 | 0.31 | 0.70 | 0.70 | 98 | 1001.8 |
| 20260505215148 | 51 | 125 | 0.0 | 0.9 | 0.24 | 0.67 | 0.67 | 98 | 1001.5 |
| 20260505214646 | 52 | 152 | 0.0 | 0.0 | 0.19 | 0.65 | 0.65 | 98 | 1001.3 |
| 20260505214143 | 52 | 144 | 0.0 | 0.0 | 0.12 | 0.63 | 0.63 | 98 | 1001.4 |
| 20260505213640 | 51 | 128 | 0.0 | 0.0 | 0.12 | 0.62 | 0.62 | 98 | 1000.9 |
| 20260505213137 | 51 | 104 | 0.0 | 0.0 | 0.12 | 0.62 | 0.62 | 98 | 1001.1 |
| 20260505212633 | 51 | 225 | 0.9 | 1.7 | 0.05 | 0.60 | 0.60 | 98 | 1001.3 |
| 20260505212131 | 51 | 133 | 0.0 | 0.0 | 0.17 | 0.60 | 0.60 | 98 | 1001.3 |
| 20260505211627 | 52 | 131 | 0.0 | 0.0 | 0.26 | 0.59 | 0.59 | 98 | 1001.0 |
| 20260505211125 | 52 | 144 | 0.9 | 1.7 | 0.24 | 0.58 | 0.58 | 98 | 1000.9 |
| 20260505210621 | 53 | 92 | 0.9 | 0.9 | 0.12 | 0.56 | 0.56 | 98 | 1001.1 |
| 20260505210118 | 53 | 130 | 0.0 | 0.0 | 0.12 | 0.54 | 0.54 | 98 | 1001.0 |
| 20260505205616 | 53 | 149 | 0.0 | 0.0 | 0.31 | 0.54 | 0.54 | 98 | 1001.3 |
| 20260505205113 | 53 | 143 | 0.9 | 0.9 | 0.24 | 0.52 | 0.52 | 98 | 1001.2 |
| 20260505204610 | 53 | 92 | 0.9 | 0.9 | 0.12 | 0.49 | 0.49 | 98 | 1001.2 |
| 20260505204108 | 53 | 88 | 0.0 | 0.0 | 0.12 | 0.48 | 0.48 | 97 | 1001.3 |
| 20260505203604 | 53 | 105 | 0.9 | 0.9 | 0.17 | 0.47 | 0.47 | 97 | 1001.3 |
| 20260505203101 | 53 | 137 | 0.0 | 0.9 | 0.50 | 0.46 | 0.46 | 97 | 1001.1 |
| 20260505202557 | 53 | 96 | 1.7 | 2.6 | 0.54 | 0.44 | 0.44 | 97 | 1001.2 |
| 20260505202053 | 54 | 113 | 0.9 | 0.9 | 0.35 | 0.40 | 0.40 | 97 | 1001.2 |
| 20260505201550 | 55 | 48 | 1.7 | 1.7 | 0.19 | 0.35 | 0.35 | 97 | 1001.2 |
| 20260505201048 | 57 | 75 | 0.9 | 0.9 | 0.12 | 0.34 | 0.34 | 97 | 1000.9 |
| 20260505200545 | 57 | 153 | 0.0 | 0.0 | 0.05 | 0.32 | 0.32 | 97 | 1001.1 |
| 20260505200042 | 57 | 143 | 0.0 | 0.0 | 0.12 | 0.32 | 0.32 | 97 | 1000.9 |
| 20260505195538 | 57 | 124 | 0.0 | 0.0 | 0.14 | 0.31 | 0.31 | 97 | 1001.1 |
| 20260505195036 | 57 | 162 | 0.9 | 0.9 | 0.07 | 0.30 | 0.30 | 96 | 1001.1 |
| 20260505194533 | 57 | 137 | 0.0 | 0.0 | 0.07 | 0.30 | 0.30 | 96 | 1001.1 |
| 20260505194028 | 57 | 177 | 0.0 | 0.0 | 0.24 | 0.29 | 0.29 | 96 | 1001.3 |
| 20260505193525 | 57 | 149 | 0.0 | 0.0 | 0.52 | 0.29 | 0.29 | 96 | 1001.2 |
| 20260505193023 | 57 | 145 | 0.0 | 0.0 | 0.50 | 0.26 | 0.26 | 95 | 1001.0 |
| 20260505192521 | 57 | 150 | 0.9 | 0.9 | 0.42 | 0.21 | 0.21 | 95 | 1001.2 |
| 20260505192019 | 57 | 151 | 0.0 | 0.0 | 0.42 | 0.17 | 0.17 | 94 | 1001.3 |
| 20260505191516 | 57 | 159 | 0.0 | 0.0 | 0.35 | 0.14 | 0.14 | 93 | 1001.0 |
| 20260505191014 | 57 | 128 | 0.0 | 0.0 | 0.31 | 0.10 | 0.10 | 93 | 1001.1 |
| 20260505190508 | 57 | 142 | 0.0 | 0.0 | 0.24 | 0.08 | 0.08 | 92 | 1001.2 |
| 20260505190004 | 57 | 151 | 0.0 | 0.0 | 0.12 | 0.05 | 0.05 | 91 | 1001.2 |
| 20260505185501 | 58 | 144 | 0.0 | 0.0 | 0.12 | 0.04 | 0.04 | 91 | 1001.1 |
| 20260505184958 | 58 | 170 | 0.0 | 0.0 | 0.12 | 0.03 | 0.03 | 90 | 1001.0 |
| 20260505184455 | 58 | 125 | 0.0 | 0.0 | 0.12 | 0.02 | 0.02 | 88 | 1001.2 |
| 20260505183952 | 58 | 136 | 0.0 | 0.0 | 0.05 | 0.01 | 0.01 | 87 | 1001.3 |
| 20260505183449 | 59 | 185 | 0.0 | 0.0 | 0.00 | 0.00 | 0.00 | 84 | 1001.4 |
| 20260505182945 | 59 | 145 | 0.0 | 0.0 | 0.00 | 0.00 | 0.00 | 82 | 1001.5 |
| 20260505182443 | 61 | 182 | 0.9 | 0.9 | 0.00 | 0.00 | 0.00 | 81 | 1001.1 |
| 20260505181938 | 61 | 202 | 0.9 | 0.9 | 0.00 | 0.00 | 0.00 | 79 | 1001.0 |
| 20260505181436 | 61 | 136 | 0.0 | 0.0 | 0.00 | 0.00 | 0.00 | 78 | 1000.9 |
| 20260505180933 | 62 | 122 | 0.9 | 1.7 | 0.00 | 0.00 | 0.00 | 77 | 1000.9 |
| 20260505180429 | 62 | 156 | 0.9 | 1.7 | 0.00 | 0.00 | 0.00 | 75 | 1001.1 |
| 20260505175926 | 62 | 170 | 0.0 | 0.9 | 0.00 | 0.00 | 0.00 | 74 | 1001.0 |
| 20260505175422 | 62 | 161 | 0.0 | 0.9 | 0.00 | 0.00 | 0.00 | 74 | 1000.8 |
| 20260505174918 | 62 | 265 | 0.9 | 1.7 | 0.00 | 0.00 | 0.00 | 74 | 1000.9 |
| 20260505174417 | 63 | 157 | 0.0 | 0.9 | 0.00 | 0.00 | 0.00 | 74 | 1000.8 |
| 20260505173912 | 63 | 173 | 1.7 | 2.6 | 0.00 | 0.00 | 0.00 | 73 | 1001.0 |
| 20260505173409 | 63 | 167 | 1.7 | 2.6 | 0.00 | 0.00 | 0.00 | 72 | 1000.7 |
| 20260505172906 | 64 | 174 | 0.9 | 0.9 | 0.00 | 0.00 | 0.00 | 72 | 1000.6 |
| 20260505172404 | 64 | 161 | 0.0 | 0.9 | 0.00 | 0.00 | 0.00 | 72 | 1000.8 |
| 20260505171903 | 64 | 159 | 1.7 | 1.7 | 0.00 | 0.00 | 0.00 | 72 | 1000.6 |
| 20260505171400 | 64 | 175 | 1.7 | 1.7 | 0.00 | 0.00 | 0.00 | 73 | 1000.7 |
| 20260505170857 | 63 | 138 | 0.9 | 0.9 | 0.00 | 0.00 | 0.00 | 73 | 1000.6 |
| 20260505170354 | 63 | 151 | 1.7 | 2.6 | 0.00 | 0.00 | 0.00 | 73 | 1000.8 |
| 20260505165848 | 63 | 162 | 1.7 | 2.6 | 0.00 | 0.00 | 0.00 | 73 | 1000.8 |
| 20260505165345 | 63 | 128 | 0.9 | 0.9 | 0.00 | 0.00 | 0.00 | 73 | 1000.8 |
| 20260505164841 | 63 | 164 | 0.9 | 1.7 | 0.00 | 0.00 | 0.00 | 73 | 1000.7 |
| 20260505164337 | 63 | 182 | 1.7 | 2.6 | 0.00 | 0.00 | 0.00 | 74 | 1000.7 |
| 20260505163835 | 63 | 198 | 2.6 | 3.5 | 0.00 | 0.00 | 0.00 | 74 | 1000.7 |
| 20260505163334 | 63 | 148 | 1.7 | 1.7 | 0.00 | 0.00 | 0.00 | 74 | 1000.8 |
| 20260505162832 | 62 | 34 | 0.9 | 1.7 | 0.00 | 0.00 | 0.00 | 75 | 1000.8 |
| 20260505162328 | 62 | 115 | 0.9 | 0.9 | 0.00 | 0.00 | 0.00 | 75 | 1000.6 |
| 20260505161825 | 62 | 195 | 0.9 | 1.7 | 0.00 | 0.00 | 0.00 | 75 | 1000.7 |
| 20260505161322 | 62 | 156 | 0.9 | 0.9 | 0.00 | 0.00 | 0.00 | 75 | 1000.4 |
| 20260505160819 | 62 | 169 | 1.7 | 1.7 | 0.00 | 0.00 | 0.00 | 75 | 1000.7 |
| 20260505160317 | 62 | 197 | 0.9 | 1.7 | 0.00 | 0.00 | 0.00 | 75 | 1000.5 |
| 20260505153256 | 67 | 220 | 2.6 | 3.5 | 0.00 | 0.00 | 0.00 | 64 | 1000.1 |
| 20260505152753 | 68 | 159 | 1.7 | 5.2 | 0.00 | 0.00 | 0.00 | 64 | 999.8 |
| 20260505152249 | 67 | 118 | 2.6 | 2.6 | 0.00 | 0.00 | 0.00 | 64 | 999.6 |
| 20260505151743 | 67 | 154 | 3.5 | 3.5 | 0.00 | 0.00 | 0.00 | 64 | 999.6 |
| 20260505151241 | 68 | 165 | 2.6 | 3.5 | 0.00 | 0.00 | 0.00 | 63 | 999.5 |
| 20260505150739 | 67 | 155 | 0.9 | 0.9 | 0.00 | 0.00 | 0.00 | 63 | 999.2 |
| 20260505150236 | 67 | 164 | 0.9 | 0.9 | 0.00 | 0.00 | 0.00 | 63 | 998.9 |
| 20260505140206 | 65 | 170 | 5.2 | 8.7 | 0.00 | 0.00 | 0.00 | 66 | 999.1 |
| 20260505130129 | 63 | 180 | 2.6 | 5.2 | 0.00 | 0.00 | 0.00 | 70 | 998.6 |
| 20260505124619 | 63 | 161 | 1.7 | 2.6 | 0.00 | 0.00 | 0.00 | 70 | 998.9 |
| 20260505124115 | 62 | 144 | 2.6 | 3.5 | 0.00 | 0.00 | 0.00 | 70 | 998.8 |
| 20260505123611 | 62 | 223 | 2.6 | 3.5 | 0.00 | 0.00 | 0.00 | 70 | 998.8 |
| 20260505123108 | 62 | 172 | 1.7 | 2.6 | 0.00 | 0.00 | 0.00 | 69 | 998.6 |
| 20260505122605 | 62 | 164 | 1.7 | 2.6 | 0.00 | 0.00 | 0.00 | 69 | 998.7 |
| 20260505122102 | 62 | 242 | 1.7 | 1.7 | 0.00 | 0.00 | 0.00 | 69 | 998.9 |
| 20260505121558 | 62 | 158 | 5.2 | 6.1 | 0.00 | 0.00 | 0.00 | 69 | 998.7 |
| 20260505121055 | 62 | 161 | 1.7 | 1.7 | 0.00 | 0.00 | 0.00 | 69 | 998.5 |
| 20260505120551 | 62 | 234 | 1.7 | 1.7 | 0.00 | 0.00 | 0.00 | 69 | 998.4 |
| 20260505120048 | 62 | 260 | 1.7 | 1.7 | 0.00 | 0.00 | 0.00 | 69 | 998.2 |
| 20260505115542 | 62 | 257 | 0.9 | 1.7 | 0.00 | 0.00 | 0.00 | 69 | 998.0 |
| 20260505115040 | 62 | 250 | 3.5 | 6.1 | 0.00 | 0.00 | 0.00 | 69 | 997.8 |
| 20260505114536 | 62 | 164 | 1.7 | 2.6 | 0.00 | 0.00 | 0.00 | 69 | 997.4 |
| 20260505114032 | 62 | 170 | 0.9 | 1.7 | 0.00 | 0.00 | 0.00 | 69 | 997.3 |
| 20260505113524 | 62 | 168 | 1.7 | 2.6 | 0.00 | 0.00 | 0.00 | 69 | 997.0 |
| 20260505113021 | 62 | 294 | 0.9 | 1.7 | 0.00 | 0.00 | 0.00 | 68 | 997.0 |
| 20260505112517 | 63 | 195 | 1.7 | 2.6 | 0.00 | 0.00 | 0.00 | 68 | 997.1 |
| 20260505112015 | 63 | 166 | 2.6 | 3.5 | 0.00 | 0.00 | 0.00 | 67 | 997.0 |
| 20260505111514 | 63 | 266 | 2.6 | 5.2 | 0.00 | 0.00 | 0.00 | 67 | 997.1 |
| 20260505111010 | 63 | 168 | 2.6 | 2.6 | 0.00 | 0.00 | 0.00 | 67 | 997.2 |
| 20260505110508 | 63 | 186 | 2.6 | 3.5 | 0.00 | 0.00 | 0.00 | 66 | 997.1 |